• En Colombia
  • Lista de países
  • Para 7 días
  • Temperatura del agua
  • El tiempo en el mapa
  • Informadores
  • user-avatar
    Iniciar sesión

    Tiempo cada hora Bogota

    Hoy, 21 Noviembre, Jueves

    Tiempo Temperatura Precipitaciones Viento Presión Humedad
    00:00 +10°C° 0.1 mm 0 mps 547 mmHg 93%
    01:00 +9°C° 0 mm 0 mps 546 mmHg 93%
    02:00 +9°C° 0 mm 0 mps 546 mmHg 93%
    03:00 +9°C° 0 mm 0 mps 546 mmHg 93%
    04:00 +9°C° 0 mm 0 mps 546 mmHg 93%
    05:00 +9°C° 0 mm 0 mps 546 mmHg 92%
    06:00 +10°C° 0 mm 0 mps 547 mmHg 90%
    07:00 +11°C° 0 mm 0 mps 548 mmHg 89%
    08:00 +13°C° 0.2 mm 0 mps 549 mmHg 83%
    09:00 +15°C° 0.2 mm 1 mps 550 mmHg 76%
    10:00 +18°C° 0.2 mm 1 mps 551 mmHg 70%
    11:00 +18°C° 1 mm 1 mps 550 mmHg 75%
    12:00 +16°C° 1 mm 1 mps 549 mmHg 79%
    13:00 +16°C° 1 mm 1 mps 548 mmHg 84%
    14:00 +16°C° 1.2 mm 1 mps 548 mmHg 85%
    15:00 +15°C° 1.2 mm 1 mps 547 mmHg 87%
    16:00 +15°C° 1.2 mm 1 mps 546 mmHg 88%
    17:00 +14°C° 0.5 mm 1 mps 546 mmHg 90%
    18:00 +11°C° 0.5 mm 0 mps 546 mmHg 91%
    19:00 +10°C° 0.5 mm 0 mps 546 mmHg 93%
    20:00 +10°C° 0 mm 0 mps 546 mmHg 92%
    21:00 +10°C° 0 mm 0 mps 546 mmHg 92%
    22:00 +10°C° 0 mm 1 mps 546 mmHg 92%
    23:00 +10°C° 0 mm 1 mps 546 mmHg 92%

    Mañana, 22 Noviembre, Viernes

    Tiempo Temperatura Precipitaciones Viento Presión Humedad
    00:00 +10°C° 0 mm 1 mps 546 mmHg 91%
    01:00 +9°C° 0 mm 1 mps 545 mmHg 91%
    02:00 +9°C° 0 mm 1 mps 545 mmHg 91%
    03:00 +9°C° 0 mm 1 mps 545 mmHg 91%
    04:00 +9°C° 0 mm 1 mps 544 mmHg 91%
    05:00 +10°C° 0 mm 1 mps 545 mmHg 89%
    06:00 +11°C° 0 mm 1 mps 546 mmHg 88%
    07:00 +11°C° 0 mm 0 mps 547 mmHg 86%
    08:00 +14°C° 0 mm 1 mps 548 mmHg 77%
    09:00 +16°C° 0 mm 1 mps 550 mmHg 68%
    10:00 +19°C° 0 mm 1 mps 551 mmHg 59%
    11:00 +19°C° 0.7 mm 1 mps 550 mmHg 66%
    12:00 +18°C° 0.7 mm 1 mps 549 mmHg 73%
    13:00 +17°C° 0.7 mm 2 mps 548 mmHg 79%
    14:00 +16°C° 1.1 mm 1 mps 548 mmHg 82%
    15:00 +16°C° 1.1 mm 1 mps 547 mmHg 85%
    16:00 +15°C° 1.1 mm 1 mps 546 mmHg 88%
    17:00 +14°C° 0.5 mm 1 mps 546 mmHg 89%
    18:00 +13°C° 0.5 mm 1 mps 546 mmHg 91%
    19:00 +11°C° 0.5 mm 0 mps 546 mmHg 92%
    20:00 +10°C° 0.3 mm 0 mps 546 mmHg 91%
    21:00 +10°C° 0.3 mm 0 mps 546 mmHg 90%
    22:00 +10°C° 0.3 mm 0 mps 547 mmHg 89%
    23:00 +10°C° 0.1 mm 0 mps 546 mmHg 90%

    Pasado mañana, 23 Noviembre, Sábado

    Tiempo Temperatura Precipitaciones Viento Presión Humedad
    00:00 +9°C° 0.1 mm 0 mps 546 mmHg 91%
    01:00 +10°C° 0.1 mm 1 mps 545 mmHg 91%
    02:00 +10°C° 0 mm 1 mps 545 mmHg 92%
    03:00 +9°C° 0 mm 1 mps 545 mmHg 92%
    04:00 +9°C° 0 mm 1 mps 545 mmHg 92%
    05:00 +10°C° 0 mm 1 mps 546 mmHg 90%
    06:00 +11°C° 0 mm 1 mps 547 mmHg 88%
    07:00 +12°C° 0 mm 1 mps 547 mmHg 86%
    08:00 +14°C° 0 mm 1 mps 549 mmHg 76%
    09:00 +16°C° 0 mm 1 mps 550 mmHg 67%
    10:00 +19°C° 0 mm 1 mps 551 mmHg 57%
    11:00 +19°C° 0.3 mm 1 mps 550 mmHg 63%
    12:00 +18°C° 0.3 mm 2 mps 549 mmHg 68%
    13:00 +17°C° 0.3 mm 2 mps 548 mmHg 74%
    14:00 +16°C° 1 mm 2 mps 548 mmHg 80%
    15:00 +15°C° 1 mm 1 mps 547 mmHg 86%
    16:00 +14°C° 1 mm 1 mps 546 mmHg 92%
    17:00 +14°C° 0.9 mm 1 mps 546 mmHg 93%
    18:00 +12°C° 0.9 mm 0 mps 546 mmHg 94%
    19:00 +11°C° 0.9 mm 0 mps 546 mmHg 95%
    20:00 +11°C° 1.4 mm 0 mps 547 mmHg 94%
    21:00 +11°C° 1.4 mm 0 mps 547 mmHg 94%
    22:00 +11°C° 1.4 mm 0 mps 548 mmHg 93%
    23:00 +11°C° 0.3 mm 0 mps 547 mmHg 92%

    24 Noviembre, Domingo

    Tiempo Temperatura Precipitaciones Viento Presión Humedad
    00:00 +10°C° 0.3 mm 0 mps 547 mmHg 92%
    01:00 +10°C° 0.3 mm 0 mps 546 mmHg 91%
    02:00 +10°C° 0 mm 0 mps 546 mmHg 91%
    03:00 +9°C° 0 mm 0 mps 545 mmHg 91%
    04:00 +9°C° 0 mm 0 mps 545 mmHg 91%
    05:00 +9°C° 0 mm 0 mps 546 mmHg 89%
    06:00 +10°C° 0 mm 0 mps 546 mmHg 87%
    07:00 +11°C° 0 mm 0 mps 547 mmHg 85%
    08:00 +13°C° 0 mm 0 mps 548 mmHg 77%
    09:00 +16°C° 0 mm 1 mps 550 mmHg 69%
    10:00 +19°C° 0 mm 1 mps 551 mmHg 61%
    11:00 +19°C° 0.3 mm 1 mps 550 mmHg 64%
    12:00 +19°C° 0.3 mm 1 mps 549 mmHg 66%
    13:00 +18°C° 0.3 mm 2 mps 549 mmHg 68%
    14:00 +17°C° 0.8 mm 2 mps 548 mmHg 75%
    15:00 +16°C° 0.8 mm 1 mps 547 mmHg 81%
    16:00 +15°C° 0.8 mm 1 mps 546 mmHg 88%
    17:00 +14°C° 0.7 mm 1 mps 546 mmHg 90%
    18:00 +13°C° 0.7 mm 1 mps 546 mmHg 92%
    19:00 +11°C° 0.7 mm 0 mps 546 mmHg 94%
    20:00 +11°C° 0.2 mm 0 mps 546 mmHg 93%
    21:00 +11°C° 0.2 mm 0 mps 546 mmHg 92%
    22:00 +10°C° 0.2 mm 0 mps 547 mmHg 91%
    23:00 +10°C° 0 mm 0 mps 546 mmHg 90%

    25 Noviembre, Lunes

    Tiempo Temperatura Precipitaciones Viento Presión Humedad
    00:00 +10°C° 0 mm 1 mps 545 mmHg 89%
    01:00 +10°C° 0 mm 1 mps 545 mmHg 88%
    02:00 +9°C° 0 mm 1 mps 544 mmHg 88%
    03:00 +8°C° 0 mm 0 mps 544 mmHg 87%
    04:00 +8°C° 0 mm 0 mps 544 mmHg 87%
    05:00 +9°C° 0 mm 0 mps 545 mmHg 85%
    06:00 +10°C° 0 mm 0 mps 546 mmHg 84%
    07:00 +11°C° 0 mm 0 mps 547 mmHg 82%
    08:00 +14°C° 0 mm 1 mps 548 mmHg 74%
    09:00 +16°C° 0 mm 1 mps 549 mmHg 67%
    10:00 +19°C° 0 mm 1 mps 550 mmHg 59%
    11:00 +19°C° 0.2 mm 1 mps 550 mmHg 62%
    12:00 +19°C° 0.2 mm 1 mps 549 mmHg 64%
    13:00 +18°C° 0.2 mm 2 mps 548 mmHg 67%
    14:00 +19°C° 0.6 mm 1 mps 547 mmHg 73%
    15:00 +18°C° 0.6 mm 1 mps 546 mmHg 79%
    16:00 +16°C° 0.6 mm 1 mps 545 mmHg 85%
    17:00 +15°C° 0.4 mm 1 mps 545 mmHg 88%
    18:00 +14°C° 0.4 mm 1 mps 545 mmHg 91%
    19:00 +12°C° 0.4 mm 1 mps 545 mmHg 94%
    20:00 +12°C° 0.1 mm 1 mps 545 mmHg 93%
    21:00 +12°C° 0.1 mm 1 mps 546 mmHg 93%
    22:00 +11°C° 0.1 mm 1 mps 546 mmHg 92%
    23:00 +11°C° 0.1 mm 1 mps 546 mmHg 92%

    26 Noviembre, Martes

    Tiempo Temperatura Precipitaciones Viento Presión Humedad
    00:00 +11°C° 0.1 mm 1 mps 545 mmHg 91%
    01:00 +11°C° 0.1 mm 1 mps 545 mmHg 91%
    02:00 +11°C° 0 mm 1 mps 545 mmHg 91%
    03:00 +11°C° 0 mm 1 mps 545 mmHg 92%
    04:00 +11°C° 0 mm 1 mps 545 mmHg 92%
    05:00 +11°C° 0 mm 1 mps 545 mmHg 91%
    06:00 +12°C° 0 mm 1 mps 546 mmHg 90%
    07:00 +12°C° 0 mm 1 mps 547 mmHg 90%
    08:00 +14°C° 0.2 mm 1 mps 548 mmHg 84%
    09:00 +16°C° 0.2 mm 1 mps 549 mmHg 78%
    10:00 +18°C° 0.2 mm 1 mps 550 mmHg 73%
    11:00 +18°C° 0.8 mm 1 mps 549 mmHg 74%
    12:00 +18°C° 0.8 mm 1 mps 548 mmHg 76%
    13:00 +18°C° 0.8 mm 1 mps 547 mmHg 78%
    14:00 +18°C° 0.7 mm 1 mps 547 mmHg 79%
    15:00 +16°C° 0.7 mm 1 mps 546 mmHg 80%
    16:00 +16°C° 0.7 mm 1 mps 546 mmHg 81%
    17:00 +15°C° 0.3 mm 1 mps 546 mmHg 85%
    18:00 +13°C° 0.3 mm 1 mps 545 mmHg 88%
    19:00 +12°C° 0.3 mm 1 mps 545 mmHg 91%
    20:00 +12°C° 0.1 mm 1 mps 545 mmHg 91%
    21:00 +11°C° 0.1 mm 1 mps 546 mmHg 90%
    22:00 +11°C° 0.1 mm 1 mps 546 mmHg 90%
    23:00 +11°C° 0 mm 1 mps 546 mmHg 90%
    Mostrar más